User: anonymous   Login
Location: Caltech
(34.1382°N, 118.1253°W)
Time: 07:05:00
(UTC-08:00)
Language:

Cosmos 1939 Rocket - Orbit

View from above orbital plane
View from above orbital plane
View from above satellite
View from above satellite

Ground track
Ground track

The orbit data is extracted from the following two-line orbital elements,

1 19046U 88032B   14327.80074694  .00002076  00000-0  16904-3 0   546
2 19046 097.6243 019.4189 0037553 276.9106 082.7846 15.00078238432120
Epoch (UTC): 23 November 2014 19:13:04
Eccentricity: 0.0037553
inclination: 97.6243°
perigee height: 540 km
apogee height: 593 km
right ascension of ascending node: 19.4189°
argument of perigee: 276.9106°
revolutions per day: 15.00078238
mean anomaly at epoch: 82.7846°
orbit number at epoch: 43212

The dashed part of the orbit path shows where the satellite is in the earth's shadow,  

DLR